Torna al catalogo

STARLINK-32592

AttivoComunicazioniVLEO
NORAD 62035·PAYLOAD·🇺🇸 United States

Lanciato Nov 21, 2024 da Cape Canaveral Space Force Station

Loading…

Prossimi Passaggi (prossime 24 ore)

TLE

AggiornatoSource: CelesTrak SupGP

Epoca: Sep 14, 2026, 21:10 UTC

1 62035C 24216D   26257.88243056  .00016538  00000+0  59906-3 0  2570
2 62035  43.0000 275.2108 0001496 265.7775 152.7086 15.27566389    11

Traccia STARLINK-32592 in tempo reale con AllMySat

Download on the App Store